| time (UTC) | temp F | wind direction | speed knots | gust knots | rain 1hr in | rain 24hr in | rain mn in | humidity % | barometer mb |
| 20260508142645 | 68 | 159 | 2.6 | 4.3 | 0.00 | 0.00 | 0.00 | 73 | 1015.0 |
| 20260508135643 | 68 | 185 | 2.6 | 2.6 | 0.00 | 0.00 | 0.00 | 73 | 1015.4 |
| 20260508132642 | 66 | 113 | 0.0 | 0.9 | 0.00 | 0.00 | 0.00 | 77 | 1014.9 |
| 20260508125643 | 62 | 68 | 0.0 | 0.0 | 0.00 | 0.00 | 0.00 | 90 | 1015.5 |
| 20260508122638 | 60 | 232 | 0.0 | 0.0 | 0.00 | 0.00 | 0.00 | 94 | 1015.6 |
| 20260508115636 | 60 | 295 | 0.0 | 0.0 | 0.00 | 0.00 | 0.00 | 94 | 1015.5 |
| 20260508112634 | 60 | 334 | 0.0 | 0.0 | 0.00 | 0.00 | 0.00 | 93 | 1015.4 |
| 20260508105631 | 59 | 280 | 0.0 | 0.0 | 0.00 | 0.00 | 0.00 | 94 | 1015.7 |
| 20260508102626 | 60 | 190 | 0.0 | 0.0 | 0.00 | 0.00 | 0.00 | 92 | 1014.4 |
| 20260508095627 | 60 | 179 | 0.9 | 0.9 | 0.00 | 0.00 | 0.00 | 92 | 1014.6 |
| 20260508092621 | 61 | 197 | 0.0 | 0.0 | 0.00 | 0.00 | 0.00 | 91 | 1014.8 |
| 20260508085616 | 61 | 245 | 0.0 | 0.0 | 0.00 | 0.00 | 0.00 | 91 | 1015.0 |
| 20260508082614 | 61 | 2 | 0.0 | 0.0 | 0.00 | 0.00 | 0.00 | 92 | 1015.8 |
| 20260508075615 | 61 | 4 | 0.0 | 0.0 | 0.00 | 0.00 | 0.00 | 91 | 1016.1 |
| 20260508072614 | 61 | 140 | 0.0 | 0.0 | 0.00 | 0.00 | 0.00 | 91 | 1015.6 |
| 20260508065612 | 61 | 140 | 0.0 | 0.0 | 0.00 | 0.00 | 0.00 | 90 | 1016.0 |
| 20260508062609 | 61 | 177 | 0.0 | 0.0 | 0.00 | 0.00 | 0.00 | 90 | 1016.2 |
| 20260508055607 | 60 | 176 | 0.0 | 0.0 | 0.00 | 0.00 | 0.00 | 90 | 1016.0 |
| 20260508052602 | 60 | 176 | 0.0 | 0.0 | 0.00 | 0.00 | 0.00 | 89 | 1016.4 |
| 20260508045557 | 61 | 176 | 0.0 | 0.0 | 0.00 | 0.00 | 0.00 | 88 | 1016.1 |
| 20260508042556 | 62 | 177 | 0.0 | 0.0 | 0.00 | 0.00 | 0.00 | 86 | 1016.1 |
| 20260508035555 | 62 | 176 | 0.0 | 0.0 | 0.00 | 0.00 | 0.00 | 85 | 1016.1 |
| 20260508032549 | 62 | 176 | 0.0 | 0.0 | 0.00 | 0.00 | 0.00 | 84 | 1016.0 |
| 20260508025547 | 63 | 177 | 0.0 | 0.0 | 0.00 | 0.00 | 0.00 | 82 | 1016.0 |
| 20260508022545 | 63 | 176 | 0.0 | 0.0 | 0.00 | 0.00 | 0.00 | 80 | 1015.9 |
| 20260508015544 | 64 | 176 | 0.0 | 0.0 | 0.00 | 0.00 | 0.00 | 77 | 1015.3 |
| 20260508012542 | 65 | 177 | 0.0 | 0.0 | 0.00 | 0.00 | 0.00 | 74 | 1015.8 |
| 20260508005537 | 67 | 177 | 0.0 | 0.0 | 0.00 | 0.00 | 0.00 | 71 | 1015.3 |
| 20260508002534 | 68 | 146 | 0.9 | 0.9 | 0.00 | 0.00 | 0.00 | 68 | 1015.5 |
| 20260507235531 | 68 | 189 | 0.9 | 0.9 | 0.00 | 0.00 | 0.00 | 67 | 1015.7 |
| 20260507232530 | 69 | 146 | 1.7 | 2.6 | 0.00 | 0.00 | 0.00 | 69 | 1015.2 |
| 20260507225527 | 69 | 185 | 0.0 | 0.9 | 0.00 | 0.00 | 0.00 | 68 | 1015.7 |
| 20260507222524 | 72 | 231 | 0.0 | 0.0 | 0.00 | 0.00 | 0.00 | 59 | 1015.9 |
| 20260507215522 | 73 | 63 | 0.0 | 0.9 | 0.00 | 0.00 | 0.00 | 58 | 1015.9 |
| 20260507212520 | 73 | 152 | 0.0 | 0.9 | 0.00 | 0.00 | 0.00 | 59 | 1016.5 |
| 20260507205518 | 73 | 46 | 1.7 | 2.6 | 0.00 | 0.00 | 0.00 | 58 | 1016.5 |
| 20260507202515 | 74 | 75 | 2.6 | 2.6 | 0.00 | 0.00 | 0.00 | 56 | 1016.5 |
| 20260507195510 | 74 | 175 | 2.6 | 4.3 | 0.00 | 0.00 | 0.00 | 56 | 1016.9 |
| 20260507192507 | 75 | 330 | 4.3 | 5.2 | 0.00 | 0.00 | 0.00 | 53 | 1017.5 |
| 20260507185508 | 73 | 69 | 4.3 | 5.2 | 0.00 | 0.00 | 0.00 | 55 | 1018.0 |
| 20260507182507 | 73 | 335 | 2.6 | 2.6 | 0.00 | 0.00 | 0.00 | 54 | 1017.9 |
| 20260507175503 | 71 | 33 | 1.7 | 1.7 | 0.00 | 0.00 | 0.00 | 56 | 1018.4 |
| 20260507172503 | 70 | 75 | 0.9 | 4.3 | 0.00 | 0.00 | 0.00 | 58 | 1019.0 |
| 20260507165459 | 69 | 69 | 2.6 | 4.3 | 0.00 | 0.00 | 0.00 | 60 | 1019.9 |
| 20260507162457 | 66 | 349 | 0.9 | 0.9 | 0.00 | 0.00 | 0.00 | 67 | 1020.0 |
| 20260507155453 | 65 | 46 | 0.0 | 0.0 | 0.00 | 0.00 | 0.00 | 67 | 1020.0 |
| 20260507152451 | 65 | 328 | 0.9 | 1.7 | 0.00 | 0.00 | 0.00 | 67 | 1020.5 |
| 20260507145447 | 64 | 1 | 0.9 | 1.7 | 0.00 | 0.00 | 0.00 | 72 | 1020.6 |